Location: ????????
(55.3155°N, 39.2900°E)
Time: 16:06:51
(UTC+00:00)

Cosmos 1980 - Pass Details

Date: 14 April 2024
Orbit: 840 x 845 km, 71.0° (Epoch: 23 May)

Event Time Altitude Azimuth Distance (km) Brightness Sun altitude
Exits shadow 01:30:56 - 219° (SW) 2,763 5.8 -7.3°
Reaches altitude 10° 01:31:45 10° 220° (SW) 2,458 5.5 -7.2°
Maximum altitude 01:37:23 76° 306° (NW) 873 3.8 -6.5°
Drops below altitude 10° 01:43:04 10° 32° (NNE) 2,470 7.2 -5.8°
Sets 01:45:32 0° 35° (NE) 3,408 8.0 -5.5°
